GW2349 Weather Reports


Display with metric or nautical units.
time (UTC)temp
F
wind
direction
speed
MPH
gust
MPH
rain 1hr
in
rain 24hr
in
rain mn
in
humidity
%
barometer
mb
20260902115042 68 352 3.0 8.0 0.00 0.00 0.00 61 1003.3
20260902114557 68 346 2.0 10.0 0.00 0.00 0.00 61 1003.4
20260902114043 68 299 4.0 10.0 0.00 0.00 0.00 59 1003.4
20260902113542 68 315 2.0 9.0 0.00 0.00 0.00 61 1003.5
20260902113052 68 340 4.0 12.0 0.00 0.00 0.00 60 1003.5
20260902112542 69 340 5.0 12.0 0.00 0.00 0.00 60 1003.6
20260902112042 68 347 3.0 9.0 0.00 0.00 0.00 62 1003.5
20260902111551 68 270 0.0 6.0 0.00 0.00 0.00 62 1003.5
20260902111044 67 111 0.0 6.0 0.00 0.00 0.00 61 1003.6
20260902110543 66 0 2.0 6.0 0.00 0.00 0.00 61 1003.6
20260902105542 66 123 1.0 4.0 0.00 0.00 0.00 61 1003.5
20260902105043 65 103 1.0 6.0 0.00 0.00 0.00 61 1003.6
20260902104616 65 101 2.0 6.0 0.00 0.00 0.00 63 1003.6
20260902104043 65 103 2.0 7.0 0.00 0.00 0.00 62 1003.6
20260902103542 64 0 2.0 7.0 0.00 0.00 0.00 63 1003.5
20260902103052 64 120 2.0 7.0 0.00 0.00 0.00 62 1003.7
20260902102542 64 111 3.0 7.0 0.00 0.00 0.00 62 1003.7
20260902102043 64 120 2.0 7.0 0.00 0.00 0.00 62 1003.7
20260902101601 64 91 2.0 6.0 0.00 0.00 0.00 65 1003.8
20260902101043 64 107 2.0 6.0 0.00 0.00 0.00 65 1003.9
20260902100543 64 98 2.0 6.0 0.00 0.00 0.00 65 1003.8
20260902100119 64 126 2.0 6.0 0.00 0.00 0.00 66 1003.9
20260902095544 64 102 2.0 6.0 0.00 0.02 0.00 69 1003.9
20260902095043 63 107 0.0 4.0 0.00 0.02 0.00 72 1004.0
20260902094555 63 105 1.0 4.0 0.00 0.02 0.00 70 1004.0
20260902094042 62 121 1.0 4.0 0.00 0.02 0.00 73 1003.9
20260902093542 62 0 0.0 4.0 0.00 0.02 0.00 74 1004.0
20260902093122 61 120 0.0 4.0 0.00 0.02 0.00 74 1003.9
20260902092542 61 102 2.0 4.0 0.00 0.02 0.00 74 1004.0
20260902092043 60 92 0.0 6.0 0.00 0.02 0.00 77 1004.0
20260902091601 60 102 1.0 6.0 0.00 0.02 0.00 76 1004.0
20260902091045 59 142 1.0 7.0 0.00 0.02 0.00 78 1004.2
20260902090543 58 89 2.0 7.0 0.00 0.02 0.00 79 1004.1
20260902085542 57 0 1.0 7.0 0.00 0.05 0.00 82 1004.2
20260902085042 56 97 1.0 7.0 0.00 0.05 0.00 82 1004.2
20260902084557 55 96 2.0 7.0 0.00 0.05 0.00 82 1004.3
20260902084043 55 100 2.0 7.0 0.00 0.05 0.00 83 1004.4
20260902083542 54 99 1.0 5.0 0.00 0.05 0.00 84 1004.3
20260902083108 54 118 1.0 7.0 0.00 0.05 0.00 84 1004.3
20260902082543 53 139 2.0 7.0 0.00 0.05 0.00 84 1004.3
20260902082043 53 110 2.0 7.0 0.00 0.05 0.00 84 1004.3
20260902081612 52 103 1.0 7.0 0.00 0.05 0.00 85 1004.3
20260902081042 52 114 2.0 7.0 0.00 0.05 0.00 85 1004.3
20260902080546 51 101 3.0 7.0 0.00 0.05 0.00 86 1004.3
20260902080100 51 0 1.0 7.0 0.00 0.05 0.00 87 1004.3
20260902075542 51 130 2.0 6.0 0.00 0.06 0.00 87 1004.2
20260902075042 50 123 2.0 8.0 0.00 0.06 0.00 88 1004.2
20260902074606 50 104 2.0 8.0 0.00 0.06 0.00 88 1004.1
20260902074043 50 117 0.0 4.0 0.00 0.06 0.00 89 1004.2
20260902073542 49 0 1.0 7.0 0.00 0.06 0.00 89 1004.2
20260902073050 49 136 2.0 7.0 0.00 0.06 0.00 90 1004.2
20260902072541 49 105 2.0 7.0 0.00 0.06 0.00 91 1004.2
20260902072044 48 112 2.0 4.0 0.00 0.06 0.00 92 1004.3
20260902071602 48 106 1.0 4.0 0.00 0.06 0.00 93 1004.3
20260902071041 48 0 0.0 3.0 0.00 0.06 0.00 93 1004.3
20260902070541 47 0 0.0 0.0 0.00 0.06 0.00 93 1004.3
20260902070059 47 0 0.0 0.0 0.00 0.06 0.00 93 1004.4
20260902065542 47 0 0.0 0.0 0.00 0.07 0.00 93 1004.4
20260902065045 46 0 0.0 0.0 0.00 0.07 0.00 94 1004.4
20260902064558 46 0 0.0 0.0 0.00 0.07 0.00 93 1004.5
20260902064042 46 0 0.0 0.0 0.00 0.07 0.00 93 1004.5
20260902063542 45 0 0.0 0.0 0.00 0.07 0.00 93 1004.6
20260902063122 45 0 0.0 0.0 0.00 0.07 0.00 93 1004.6
20260902062542 45 0 0.0 0.0 0.00 0.07 0.00 93 1004.6
20260902062042 44 0 0.0 0.0 0.00 0.07 0.00 93 1004.6
20260902061557 44 0 0.0 0.0 0.00 0.07 0.00 93 1004.6
20260902061042 44 0 0.0 0.0 0.00 0.07 0.00 93 1004.7
20260902060542 43 0 0.0 0.0 0.00 0.07 0.00 93 1004.7
20260902060126 43 0 0.0 0.0 0.00 0.07 0.00 92 1004.8
20260902055542 43 0 0.0 0.0 0.00 0.11 0.00 92 1004.7
20260902055043 43 0 0.0 0.0 0.00 0.11 0.00 92 1004.8
20260902054554 42 0 0.0 0.0 0.00 0.11 0.00 92 1004.8
20260902054047 42 0 0.0 0.0 0.00 0.11 0.00 91 1004.8
20260902053542 42 0 0.0 0.0 0.00 0.11 0.00 91 1004.8
20260902053051 42 0 0.0 0.0 0.00 0.11 0.00 91 1004.8
20260902052542 41 0 0.0 0.0 0.00 0.11 0.00 90 1004.9
20260902052042 41 0 0.0 0.0 0.00 0.11 0.00 90 1004.9
20260902051607 41 0 0.0 0.0 0.00 0.11 0.00 90 1005.0
20260902051042 41 0 0.0 0.0 0.00 0.11 0.00 90 1005.0
20260902050543 41 0 0.0 0.0 0.00 0.11 0.00 90 1004.9
20260902050055 41 0 0.0 0.0 0.00 0.11 0.00 89 1005.0
20260902045546 41 0 0.0 0.0 0.00 0.14 0.00 89 1005.1
20260902045042 41 0 0.0 0.0 0.00 0.14 0.00 89 1005.0
20260902044602 41 0 0.0 0.0 0.00 0.14 0.00 89 1005.1
20260902044044 41 0 0.0 0.0 0.00 0.14 0.00 89 1005.1
20260902043542 41 0 0.0 0.0 0.00 0.14 0.00 88 1005.1
20260902043111 41 0 0.0 0.0 0.00 0.14 0.00 88 1005.2
20260902042542 41 0 0.0 0.0 0.00 0.14 0.00 88 1005.2
20260902042043 41 0 0.0 0.0 0.00 0.14 0.00 89 1005.2
20260902041557 41 0 0.0 0.0 0.00 0.14 0.00 89 1005.2
20260902041042 41 0 0.0 0.0 0.00 0.14 0.00 89 1005.2
20260902040542 41 0 0.0 0.0 0.00 0.14 0.00 88 1005.2
20260902040056 41 0 0.0 0.0 0.00 0.14 0.00 88 1005.2
20260902035541 41 0 0.0 0.0 0.00 0.16 0.00 88 1005.2
20260902035042 41 0 0.0 0.0 0.00 0.16 0.00 88 1005.3
20260902034601 41 0 0.0 0.0 0.00 0.16 0.00 88 1005.4
20260902034043 41 0 0.0 0.0 0.00 0.16 0.00 88 1005.4
20260902033543 41 0 0.0 0.0 0.00 0.16 0.00 88 1005.4
20260902033112 41 0 0.0 0.0 0.00 0.16 0.00 88 1005.5
20260902032542 41 0 0.0 0.0 0.00 0.16 0.00 88 1005.5
20260902032042 41 0 0.0 0.0 0.00 0.16 0.00 88 1005.5
20260902031558 42 0 0.0 0.0 0.00 0.16 0.00 88 1005.5
20260902031042 42 0 0.0 0.0 0.00 0.16 0.00 88 1005.6
20260902030543 42 0 0.0 0.0 0.00 0.16 0.00 88 1005.6
20260902025543 42 0 0.0 0.0 0.00 0.21 0.00 88 1005.7
20260902025043 42 0 0.0 0.0 0.00 0.21 0.00 89 1005.7
20260902024620 42 0 0.0 0.0 0.00 0.21 0.00 89 1005.7
20260902024042 42 0 0.0 0.0 0.00 0.21 0.00 89 1005.8
20260902023542 42 0 0.0 0.0 0.00 0.21 0.00 88 1005.9
20260902023101 42 0 0.0 0.0 0.00 0.21 0.00 88 1005.8
20260902022545 43 0 0.0 0.0 0.00 0.21 0.00 88 1005.9
20260902022041 43 0 0.0 0.0 0.00 0.21 0.00 89 1005.9
20260902021555 43 0 0.0 0.0 0.00 0.21 0.00 89 1006.0
20260902021042 43 0 0.0 0.0 0.00 0.21 0.00 89 1005.9
20260902020542 43 0 0.0 0.0 0.00 0.21 0.00 89 1006.0
20260902020116 43 0 0.0 0.0 0.00 0.21 0.00 89 1006.0
20260902015542 43 0 0.0 0.0 0.00 0.22 0.00 88 1006.0
20260902015042 43 0 0.0 0.0 0.00 0.22 0.00 88 1006.2
20260902014558 43 0 0.0 0.0 0.00 0.22 0.00 88 1006.2
20260902014042 43 0 0.0 0.0 0.00 0.22 0.00 88 1006.2
20260902013545 43 0 0.0 0.0 0.00 0.22 0.00 88 1006.2
20260902013106 43 0 0.0 0.0 0.00 0.22 0.00 88 1006.3
20260902012541 43 0 0.0 0.0 0.00 0.22 0.00 88 1006.2
20260902012042 43 0 0.0 0.0 0.00 0.22 0.00 88 1006.4
20260902011555 43 0 0.0 0.0 0.00 0.22 0.00 88 1006.2
20260902011044 43 0 0.0 0.0 0.00 0.22 0.00 88 1006.4
20260902010541 43 0 0.0 0.0 0.00 0.22 0.00 88 1006.4
20260902010052 44 0 0.0 0.0 0.00 0.22 0.00 88 1006.5
20260902005545 44 0 0.0 0.0 0.00 0.23 0.00 88 1006.4
20260902005042 44 0 0.0 0.0 0.00 0.23 0.00 88 1006.4
20260902004603 44 0 0.0 0.0 0.00 0.23 0.00 88 1006.3
20260902004134 44 0 0.0 0.0 0.00 0.23 0.00 88 1006.5
20260902003542 44 0 0.0 0.0 0.00 0.23 0.00 88 1006.5
20260902003104 44 0 0.0 0.0 0.00 0.23 0.00 88 1006.6
20260902002542 44 0 0.0 0.0 0.00 0.23 0.00 88 1006.6
20260902002041 44 0 0.0 0.0 0.00 0.23 0.00 88 1006.6
20260902001556 45 0 0.0 0.0 0.00 0.23 0.00 88 1006.6
20260902001044 45 0 0.0 0.0 0.00 0.23 0.00 88 1006.6
20260902000542 45 0 0.0 0.0 0.00 0.23 0.00 88 1006.6
20260902000055 45 0 0.0 0.0 0.00 0.23 0.00 87 1006.6
20260901235542 45 0 0.0 0.0 0.00 0.23 0.00 88 1006.6
20260901235042 45 0 0.0 0.0 0.00 0.23 0.00 88 1006.6
20260901234611 45 0 0.0 0.0 0.00 0.23 0.00 88 1006.7
20260901234044 45 0 0.0 0.0 0.00 0.23 0.00 88 1006.6
20260901233542 45 0 0.0 0.0 0.00 0.23 0.00 88 1006.6
20260901233103 46 0 0.0 0.0 0.00 0.23 0.00 88 1006.7
20260901232542 46 0 0.0 0.0 0.00 0.23 0.00 88 1006.7
20260901232042 46 0 0.0 0.0 0.00 0.23 0.00 88 1006.8
20260901231558 46 0 0.0 0.0 0.00 0.23 0.00 88 1006.8
20260901231041 46 0 0.0 0.0 0.00 0.23 0.00 88 1006.8
20260901230542 46 0 0.0 0.0 0.00 0.23 0.00 89 1006.8
20260901230105 46 0 0.0 0.0 0.00 0.23 0.00 88 1006.8
20260901225543 46 0 0.0 0.0 0.00 0.23 0.00 88 1006.8
20260901225042 46 0 0.0 0.0 0.00 0.23 0.00 88 1006.8
20260901224603 47 0 0.0 0.0 0.00 0.23 0.00 88 1006.9
20260901224042 47 0 0.0 0.0 0.00 0.23 0.00 88 1007.0
20260901223542 47 0 0.0 0.0 0.00 0.23 0.00 88 1007.0
20260901223116 47 0 0.0 0.0 0.00 0.23 0.00 88 1007.1
20260901222542 47 0 0.0 0.0 0.00 0.23 0.00 88 1007.1
20260901222042 47 0 0.0 0.0 0.00 0.23 0.00 88 1007.1
20260901221632 48 0 0.0 0.0 0.00 0.23 0.00 88 1007.1
20260901221042 48 0 0.0 0.0 0.00 0.23 0.00 88 1007.0
20260901220542 48 0 0.0 0.0 0.00 0.23 0.00 88 1007.0
20260901220108 48 0 0.0 0.0 0.00 0.23 0.00 88 1007.1
20260901215542 48 0 0.0 0.0 0.00 0.23 0.23 87 1007.1
20260901215043 48 0 0.0 0.0 0.00 0.23 0.23 87 1007.2
20260901214600 48 0 0.0 0.0 0.00 0.23 0.23 87 1007.2
20260901214042 49 0 0.0 0.0 0.00 0.23 0.23 87 1007.3
20260901213542 49 0 0.0 0.0 0.00 0.23 0.23 87 1007.2
20260901213105 49 0 0.0 0.0 0.00 0.23 0.23 87 1007.2
20260901212544 49 0 0.0 0.0 0.00 0.23 0.23 87 1007.2
20260901212042 49 0 0.0 0.0 0.00 0.23 0.23 87 1007.3
20260901211553 49 0 0.0 0.0 0.00 0.23 0.23 87 1007.3
20260901211042 49 0 0.0 0.0 0.00 0.23 0.23 87 1007.4
20260901210542 50 0 0.0 0.0 0.00 0.23 0.23 87 1007.4
20260901210052 50 0 0.0 0.0 0.00 0.23 0.23 88 1007.4
20260901205542 50 0 0.0 0.0 0.00 0.23 0.23 88 1007.5
20260901205043 50 0 0.0 0.0 0.00 0.23 0.23 88 1007.5
20260901204559 50 0 0.0 0.0 0.00 0.23 0.23 87 1007.4
20260901204043 50 0 0.0 0.0 0.00 0.23 0.23 87 1007.4
20260901203542 50 0 0.0 0.0 0.00 0.23 0.23 87 1007.5
20260901203118 50 0 0.0 0.0 0.00 0.23 0.23 87 1007.6
20260901202542 51 0 0.0 0.0 0.00 0.23 0.23 87 1007.6
20260901202042 51 0 0.0 0.0 0.00 0.23 0.23 87 1007.5
20260901201559 51 0 0.0 0.0 0.00 0.23 0.23 87 1007.5
20260901201042 51 0 0.0 0.0 0.00 0.23 0.23 87 1007.6
20260901200541 51 0 0.0 0.0 0.00 0.23 0.23 87 1007.6
20260901195542 51 0 0.0 0.0 0.00 0.23 0.23 88 1007.6
20260901195042 51 0 0.0 0.0 0.00 0.23 0.23 88 1007.5
20260901194601 51 0 0.0 0.0 0.00 0.23 0.23 88 1007.6
20260901194044 51 0 0.0 0.0 0.00 0.23 0.23 88 1007.7
20260901193542 51 0 0.0 0.0 0.00 0.23 0.23 88 1007.7
20260901193108 51 0 0.0 0.0 0.00 0.23 0.23 88 1007.6
20260901192542 51 0 0.0 0.0 0.00 0.23 0.23 88 1007.6
20260901192042 51 0 0.0 0.0 0.00 0.23 0.23 88 1007.6
20260901191553 51 0 0.0 0.0 0.00 0.23 0.23 88 1007.7
20260901191039 52 0 0.0 0.0 0.00 0.23 0.23 88 1007.6
20260901190541 52 0 0.0 0.0 0.00 0.23 0.23 88 1007.7
20260901190105 52 0 0.0 0.0 0.00 0.23 0.23 88 1007.7
20260901185541 52 0 0.0 0.0 0.00 0.23 0.23 88 1007.7
20260901185042 52 0 0.0 0.0 0.00 0.23 0.23 88 1007.8
20260901184607 52 0 0.0 0.0 0.00 0.23 0.23 87 1007.7
20260901184042 52 0 0.0 0.0 0.00 0.23 0.23 87 1007.7
20260901183546 52 0 0.0 0.0 0.00 0.23 0.23 87 1007.8
20260901183057 52 0 0.0 0.0 0.00 0.23 0.23 87 1007.8
20260901182549 52 0 0.0 0.0 0.00 0.23 0.23 87 1007.8
20260901182044 52 0 0.0 0.0 0.00 0.23 0.23 87 1007.8
20260901181607 52 0 0.0 0.0 0.00 0.23 0.23 87 1007.8
20260901181043 52 0 0.0 3.0 0.00 0.23 0.23 87 1007.8
20260901180547 52 0 0.0 3.0 0.00 0.23 0.23 87 1007.8
20260901180109 52 232 1.0 3.0 0.00 0.23 0.23 87 1007.9
20260901175544 52 231 0.0 3.0 0.00 0.23 0.23 87 1007.9
20260901175043 52 227 0.0 4.0 0.00 0.23 0.23 87 1007.8
20260901174559 52 192 0.0 4.0 0.00 0.23 0.23 87 1007.9
20260901174044 52 0 0.0 0.0 0.00 0.23 0.23 87 1007.9
20260901173544 52 0 0.0 2.0 0.00 0.23 0.23 87 1007.8
20260901173102 52 0 0.0 3.0 0.00 0.23 0.23 86 1007.8
20260901172543 52 252 0.0 4.0 0.00 0.23 0.23 86 1007.9
20260901172043 52 252 2.0 6.0 0.00 0.23 0.23 86 1007.9
20260901171604 52 194 2.0 6.0 0.00 0.23 0.23 86 1007.9
20260901171046 52 237 2.0 6.0 0.00 0.23 0.23 86 1007.9
20260901170545 52 196 2.0 5.0 0.00 0.23 0.23 86 1007.9
20260901170106 52 222 2.0 5.0 0.00 0.23 0.23 86 1007.9
20260901165543 52 227 2.0 4.0 0.00 0.23 0.23 86 1007.8
20260901165043 52 213 0.0 4.0 0.00 0.23 0.23 86 1007.8
20260901164606 52 0 1.0 4.0 0.00 0.23 0.23 86 1007.8
20260901164045 52 0 0.0 0.0 0.00 0.23 0.23 87 1007.8
20260901163544 52 0 0.0 0.0 0.00 0.23 0.23 87 1007.8
20260901163104 52 0 0.0 0.0 0.00 0.23 0.23 87 1007.7
20260901162544 52 0 0.0 0.0 0.00 0.23 0.23 87 1007.6
20260901162043 52 0 0.0 0.0 0.00 0.23 0.23 87 1007.6
20260901161606 52 0 0.0 0.0 0.00 0.23 0.23 87 1007.6
20260901161047 52 0 0.0 2.0 0.00 0.23 0.23 87 1007.6
20260901160548 52 0 0.0 3.0 0.00 0.23 0.23 87 1007.6
20260901160107 52 265 1.0 4.0 0.00 0.23 0.23 87 1007.6
20260901155543 52 0 1.0 5.0 0.00 0.23 0.23 87 1007.7
20260901155046 52 252 1.0 5.0 0.00 0.23 0.23 86 1007.7
20260901154604 52 212 1.0 4.0 0.00 0.23 0.23 87 1007.6
20260901154048 52 221 2.0 4.0 0.00 0.23 0.23 87 1007.6
20260901153544 52 0 1.0 4.0 0.00 0.23 0.23 87 1007.6
20260901153102 52 0 0.0 4.0 0.00 0.23 0.23 87 1007.7
20260901152543 52 244 1.0 4.0 0.00 0.23 0.23 87 1007.7
20260901152043 52 244 2.0 4.0 0.00 0.23 0.23 87 1007.6
20260901151558 52 241 0.0 4.0 0.00 0.23 0.23 87 1007.6
20260901151042 52 271 0.0 4.0 0.00 0.23 0.23 87 1007.6
20260901150543 52 0 1.0 4.0 0.00 0.23 0.23 87 1007.6
20260901150118 52 0 0.0 0.0 0.00 0.23 0.23 87 1007.7
20260901145545 52 0 0.0 0.0 0.00 0.23 0.23 88 1007.6
20260901145041 52 0 0.0 3.0 0.00 0.23 0.23 87 1007.6
20260901144603 52 0 0.0 3.0 0.00 0.23 0.23 87 1007.6
20260901144041 52 258 1.0 3.0 0.00 0.23 0.23 87 1007.6
20260901143541 52 262 0.0 5.0 0.00 0.23 0.23 87 1007.6
20260901143108 52 0 1.0 5.0 0.00 0.23 0.23 87 1007.6
20260901142541 52 304 2.0 5.0 0.00 0.23 0.23 87 1007.6
20260901142042 52 0 1.0 4.0 0.00 0.23 0.23 87 1007.6
20260901141605 52 243 1.0 3.0 0.00 0.23 0.23 88 1007.6
20260901141041 52 333 0.0 4.0 0.00 0.23 0.23 88 1007.6
20260901140541 52 0 0.0 5.0 0.00 0.23 0.23 88 1007.6
20260901135541 52 231 1.0 5.0 0.00 0.23 0.23 88 1007.6
20260901135045 52 234 2.0 5.0 0.00 0.23 0.23 88 1007.5
20260901134631 52 293 2.0 5.0 0.00 0.23 0.23 88 1007.5
20260901134040 52 0 2.0 7.0 0.00 0.23 0.23 88 1007.6
20260901133546 52 230 2.0 7.0 0.00 0.23 0.23 88 1007.5
20260901133105 52 236 2.0 8.0 0.00 0.23 0.23 88 1007.5
20260901132542 52 219 1.0 8.0 0.00 0.23 0.23 88 1007.5
20260901132042 52 241 5.0 9.0 0.00 0.23 0.23 88 1007.5
20260901131608 52 263 4.0 9.0 0.00 0.23 0.23 88 1007.4
20260901131041 52 252 2.0 9.0 0.00 0.23 0.23 88 1007.5
20260901130544 52 251 3.0 9.0 0.00 0.23 0.23 88 1007.4
20260901130113 52 285 4.0 9.0 0.00 0.23 0.23 88 1007.5
20260901125541 52 269 3.0 8.0 0.00 0.23 0.23 88 1007.4
20260901125041 52 246 3.0 8.0 0.00 0.23 0.23 88 1007.4
20260901124608 52 252 1.0 8.0 0.00 0.23 0.23 87 1007.4
20260901124041 52 240 3.0 8.0 0.00 0.23 0.23 87 1007.4
20260901123541 52 243 4.0 8.0 0.00 0.23 0.23 86 1007.4
20260901123104 52 242 2.0 6.0 0.00 0.23 0.23 87 1007.3
20260901122545 52 159 1.0 10.0 0.00 0.23 0.23 86 1007.3
20260901122044 52 250 1.0 10.0 0.00 0.23 0.23 87 1007.3
20260901121605 52 265 3.0 10.0 0.00 0.23 0.23 86 1007.4
20260901121042 52 240 3.0 8.0 0.00 0.23 0.23 86 1007.4
20260901120542 52 294 1.0 8.0 0.00 0.23 0.23 86 1007.3
20260901120105 52 214 4.0 10.0 0.00 0.23 0.23 86 1007.1
20260901115543 52 237 4.0 10.0 0.00 0.23 0.23 86 1007.2